User: anonymous   Login
Location: Pian di Sc�
(43.6333°N, 11.5500°E)
Time: 07:52:25
(UTC+00:00)
Language:

Cosmos 1356 Rocket - Orbit

View from above orbital plane
View from above orbital plane
View from above satellite
View from above satellite

Ground track
Ground track

The orbit data is extracted from the following two-line orbital elements,

1 13154U 82039B   20299.91942220 +.00000366 +00000-0 +28175-4 0  9999
2 13154 081.1809 284.9350 0038815 256.0557 103.6344 14.98783074087196
Epoch (UTC): 25 October 2020 22:03:58
Eccentricity: 0.0038815
inclination: 81.1809°
perigee height: 543 km
apogee height: 597 km
right ascension of ascending node: 284.9350°
argument of perigee: 256.0557°
revolutions per day: 14.98783074
mean anomaly at epoch: 103.6344°
orbit number at epoch: 8719

The dashed part of the orbit path shows where the satellite is in the earth's shadow,  

DLR